Date String (YYYY-MM-DD hh:mm:ss) UTC,Instrument flags,Ambient pressure (hPa),Sample flow (lpm),Bypass flow (lpm),Sample temperature (°C),Ambient temperature (°C),ASC tube jacket temperature (°C),LED temperature (°C),Box temperature (°C),Sample RH (%),Span deviation,Mass concentration (μg/m³),Mass concentration (μg/m³),Mass concentration (μg/m³)
DateTimeUTC,F1_M11,P_M11,Q1_M11,Q2_M11,T1_M11,T2_M11,T3_M11,T4_M11,T5_M11,U1_M11,ZSPAN_M11,X0_M11,X2_M11,X1_M11
2021-08-28 20:00:00,,0826.7,4.99,0.00,28.8,26.6,00.0,37.9,30.5,24.6,0002.2,0038.57,0021.60,0019.85
2021-08-28 20:01:00,,0826.6,5.02,0.00,28.9,27.0,00.0,37.9,30.6,24.7,0002.1,0038.41,0021.58,0019.86
2021-08-28 20:02:00,,0826.7,4.99,0.00,28.9,27.4,00.0,37.9,30.8,24.9,0002.0,0038.06,0021.58,0019.88
2021-08-28 20:03:00,,0826.6,5.00,0.00,29.0,27.8,00.0,38.0,30.9,25.0,0002.1,0037.69,0021.67,0019.91
2021-08-28 20:04:00,,0826.7,5.01,0.00,29.0,28.0,00.0,38.0,30.9,25.3,0002.3,0036.64,0021.68,0019.96
2021-08-28 20:05:00,,0826.7,5.00,0.00,29.1,27.4,00.0,38.0,30.8,26.0,0002.2,0035.77,0021.70,0020.03
2021-08-28 20:06:00,,0826.7,5.00,0.00,28.9,25.8,00.0,38.0,30.3,26.1,0002.0,0036.41,0021.79,0020.09
2021-08-28 20:07:00,,0826.6,4.99,0.00,28.8,25.5,00.0,37.9,30.2,26.4,0001.9,0036.54,0021.93,0020.20
2021-08-28 20:08:00,,0826.7,5.01,0.00,28.7,25.9,00.0,37.9,30.3,26.6,0002.0,0036.60,0022.01,0020.29
2021-08-28 20:09:00,,0826.7,5.01,0.00,28.7,26.4,00.0,37.9,30.4,26.7,0001.9,0036.55,0021.99,0020.33
2021-08-28 20:10:00,,0826.7,4.99,0.00,28.7,26.8,00.0,37.9,30.5,26.8,0002.1,0034.13,0022.05,0020.38
2021-08-28 20:11:00,,0826.7,4.99,0.00,28.8,27.2,00.0,37.9,30.7,27.3,0002.2,0033.36,0022.16,0020.47
2021-08-28 20:12:00,,0826.7,5.02,0.00,28.9,27.6,00.0,37.9,30.8,27.3,0002.3,0033.40,0022.33,0020.59
2021-08-28 20:13:00,,0826.7,4.99,0.00,28.9,27.9,00.0,37.9,30.9,27.0,0002.5,0033.81,0022.40,0020.64
2021-08-28 20:14:00,,0826.6,4.99,0.00,29.0,28.1,00.0,37.9,31.0,26.7,0002.6,0032.92,0022.40,0020.70
2021-08-28 20:15:00,,0826.7,5.02,0.00,29.1,28.2,00.0,38.0,31.0,26.7,0002.6,0032.39,0022.51,0020.77
2021-08-28 20:16:00,,0826.7,5.00,0.00,29.0,27.0,00.0,38.0,30.6,26.8,0002.7,0032.60,0022.62,0020.82
2021-08-28 20:17:00,,0826.7,5.01,0.00,28.9,25.6,00.0,37.9,30.2,27.0,0002.7,0032.19,0022.65,0020.85
2021-08-28 20:18:00,,0826.7,5.01,0.00,28.8,25.8,00.0,37.9,30.3,26.8,0002.7,0033.40,0022.68,0020.86
2021-08-28 20:19:00,,0826.7,5.00,0.00,28.8,26.2,00.0,37.9,30.4,26.8,0002.6,0034.54,0022.66,0020.86
2021-08-28 20:20:00,,0826.7,4.98,0.00,28.8,26.7,00.0,37.9,30.5,27.3,0002.6,0036.25,0022.70,0020.85
2021-08-28 20:21:00,,0826.7,5.01,0.00,28.8,27.1,00.0,37.9,30.7,27.0,0002.6,0036.55,0022.67,0020.86
2021-08-28 20:22:00,,0826.7,5.00,0.00,28.9,27.5,00.0,37.9,30.8,27.0,0002.5,0037.02,0022.66,0020.84
2021-08-28 20:23:00,,0826.7,5.00,0.00,29.0,27.8,00.0,37.9,30.9,27.2,0002.4,0036.46,0022.55,0020.78
2021-08-28 20:24:00,,0826.8,5.00,0.00,29.0,28.1,00.0,37.9,31.0,27.4,0002.3,0035.54,0022.52,0020.77
2021-08-28 20:25:00,,0826.8,5.01,0.00,29.1,28.3,00.0,38.0,31.1,26.8,0002.3,0035.42,0022.46,0020.74
2021-08-28 20:26:00,,0826.7,5.00,0.00,29.1,27.3,00.0,38.0,30.8,26.7,0002.3,0035.79,0022.40,0020.69
2021-08-28 20:27:00,,0826.7,5.00,0.00,29.0,25.8,00.0,38.0,30.4,27.3,0002.3,0036.64,0022.35,0020.67
2021-08-28 20:28:00,,0826.7,5.01,0.00,28.9,25.7,00.0,38.0,30.3,27.6,0002.3,0036.72,0022.29,0020.63
2021-08-28 20:29:00,,0826.7,5.00,0.00,28.8,26.1,00.0,37.9,30.5,27.6,0002.4,0036.25,0022.28,0020.60
2021-08-28 20:30:00,,0826.7,4.99,0.00,28.8,26.6,00.0,37.9,30.5,27.1,0002.5,0036.17,0022.34,0020.60
2021-08-28 20:31:00,,0826.7,5.00,0.00,28.8,27.0,00.0,37.9,30.7,27.4,0002.7,0036.15,0022.34,0020.58
2021-08-28 20:32:00,,0826.6,5.00,0.00,28.9,27.4,00.0,37.9,30.8,27.4,0002.6,0036.42,0022.33,0020.55
2021-08-28 20:33:00,,0826.6,4.99,0.00,29.0,27.8,00.0,37.9,30.9,27.3,0002.6,0035.57,0022.28,0020.53
2021-08-28 20:34:00,,0826.6,5.01,0.00,29.0,28.1,00.0,37.9,31.0,27.0,0002.8,0036.14,0022.34,0020.53
2021-08-28 20:35:00,,0826.6,5.00,0.00,29.1,28.3,00.0,38.0,31.1,26.6,0002.7,0037.62,0022.30,0020.50
2021-08-28 20:36:00,,0826.7,5.00,0.00,29.1,27.5,00.0,38.0,30.9,26.6,0002.5,0038.37,0022.32,0020.48
2021-08-28 20:37:00,,0826.6,4.99,0.00,29.0,26.0,00.0,38.0,30.4,27.5,0002.5,0038.43,0022.31,0020.45
2021-08-28 20:38:00,,0826.6,5.01,0.00,28.9,25.7,00.0,38.0,30.3,27.4,0002.4,0037.07,0022.28,0020.42
2021-08-28 20:39:00,,0826.6,5.00,0.00,28.8,26.1,00.0,38.0,30.4,27.2,0002.5,0036.42,0022.24,0020.40
2021-08-28 20:40:00,,0826.7,4.99,0.00,28.8,26.5,00.0,37.9,30.5,27.2,0002.5,0035.89,0022.16,0020.35
2021-08-28 20:41:00,,0826.7,5.00,0.00,28.9,27.0,00.0,37.9,30.6,27.4,0002.3,0034.36,0022.04,0020.30
2021-08-28 20:42:00,,0826.7,4.99,0.00,28.9,27.4,00.0,37.9,30.8,27.0,0002.2,0032.95,0021.97,0020.28
2021-08-28 20:43:00,,0826.7,4.99,0.00,29.0,27.8,00.0,37.9,30.9,27.0,0002.1,0032.49,0021.96,0020.24
2021-08-28 20:44:00,,0826.7,5.01,0.00,29.0,28.0,00.0,38.0,31.0,27.1,0002.1,0032.39,0021.89,0020.19
2021-08-28 20:45:00,,0826.7,5.01,0.00,29.1,28.1,00.0,38.0,31.0,26.6,0002.1,0031.62,0021.74,0020.11
2021-08-28 20:46:00,,0826.7,4.99,0.00,29.1,26.7,00.0,38.0,30.7,27.1,0002.2,0031.28,0021.71,0020.05
2021-08-28 20:47:00,,0826.7,5.01,0.00,28.9,25.6,00.0,38.0,30.3,27.1,0002.1,0032.31,0021.72,0020.00
2021-08-28 20:48:00,,0826.7,5.00,0.00,28.8,25.8,00.0,38.0,30.3,27.2,0002.1,0032.31,0021.67,0019.97
2021-08-28 20:49:00,,0826.7,5.00,0.00,28.8,26.2,00.0,37.9,30.4,27.4,0002.4,0032.87,0021.67,0019.93
2021-08-28 20:50:00,,0826.7,4.99,0.00,28.8,26.6,00.0,37.9,30.5,27.4,0002.3,0033.37,0021.62,0019.85
2021-08-28 20:51:00,,0826.7,4.99,0.00,28.8,27.1,00.0,37.9,30.7,26.7,0002.3,0033.72,0021.55,0019.80
2021-08-28 20:52:00,,0826.7,5.00,0.00,28.9,27.5,00.0,37.9,30.8,26.6,0002.2,0033.99,0021.55,0019.76
2021-08-28 20:53:00,,0826.7,5.00,0.00,29.0,27.8,00.0,37.9,30.9,26.9,0002.2,0034.32,0021.55,0019.72
2021-08-28 20:54:00,,0826.7,5.00,0.00,29.0,28.1,00.0,38.0,31.0,27.0,0002.2,0034.53,0021.48,0019.68
2021-08-28 20:55:00,,0826.7,5.00,0.00,29.1,27.7,00.0,38.0,30.9,26.7,0002.1,0035.12,0021.49,0019.69
2021-08-28 20:56:00,,0826.6,5.00,0.00,29.0,26.0,00.0,38.0,30.4,26.7,0002.0,0035.54,0021.50,0019.69
2021-08-28 20:57:00,,0826.7,5.01,0.00,28.8,25.5,00.0,38.0,30.3,27.2,0001.9,0035.16,0021.46,0019.66
2021-08-28 20:58:00,,0826.6,5.01,0.00,28.8,25.9,00.0,37.9,30.3,27.0,0001.9,0033.89,0021.45,0019.64
2021-08-28 20:59:00,,0826.7,5.00,0.00,28.8,26.3,00.0,37.9,30.4,27.2,0001.9,0034.40,0021.42,0019.61
